User: anonymous   Login
Location: Oshawa
(43.9000°N, 78.8670°W)
Time: 06:21:04
(UTC-04:00)
Language:

Explorer 11/Cluster Stage 4 - Orbit

View from above orbital plane
View from above orbital plane
View from above satellite
View from above satellite

Ground track
Ground track

The orbit data is extracted from the following two-line orbital elements,

1 00107U 61013A   15213.20200816  .00002076  00000-0  26712-3 0  9996
2 00107 028.7873 157.5303 0554161 011.6356 115.0202 14.07072826714328
Epoch (UTC): 01 August 2015 04:50:53
Eccentricity: 0.0554161
inclination: 28.7873°
perigee height: 468 km
apogee height: 1271 km
right ascension of ascending node: 157.5303°
argument of perigee: 11.6356°
revolutions per day: 14.07072826
mean anomaly at epoch: 115.0202°
orbit number at epoch: 71432

The dashed part of the orbit path shows where the satellite is in the earth's shadow,  

DLR